COLUMBIA

Last updated on Thu Mar 08 2018 00:16:52 GMT+0000 (Coordinated Universal Time)

1 42702U 98067LK 18066.37622415 .22640365 12480-4 12628-2 0 9994 2 42702 51.6147 131.6862 0001623 340.6009 19.7898 16.42105255 46241

Satellite not in orbit